User: anonymous   Login
Location: Unspecified
(0.0000°N, 0.0000°E)
Time: 23:17:58
(UTC+00:00)
Language:

KKS-1 - Orbit

View from above orbital plane
View from above orbital plane
View from above satellite
View from above satellite

Ground track
Ground track

The orbit data is extracted from the following two-line orbital elements,

1 33499U 09002H   18050.91342444 +.00000096 +00000-0 +22274-4 0  9990
2 33499 098.3491 228.9004 0008223 311.0095 049.0401 14.75295459487461
Epoch (UTC): 19 February 2018 21:55:19
Eccentricity: 0.0008223
inclination: 98.3491°
perigee height: 638 km
apogee height: 650 km
right ascension of ascending node: 228.9004°
argument of perigee: 311.0095°
revolutions per day: 14.75295459
mean anomaly at epoch: 49.0401°
orbit number at epoch: 48746

The dashed part of the orbit path shows where the satellite is in the earth's shadow,  

DLR